When you browse on this site, cookies collect data to enhance your experience and personalize the content and advertising you see.
Visit our Privacy Policy to learn more. By continuing to use the site, you agree to this use of cookies and data.

Stündliche Wetter Korostyschew

Heute, 25 September, Freitag

Zeit Temperatur Niederschläge Wind Luftdruck Luftfeuchtigkeit
00:00 +16°C° 0 mm 2 m/S 743 mmHg 53%
01:00 +16°C° 0 mm 2 m/S 743 mmHg 54%
02:00 +16°C° 0 mm 2 m/S 743 mmHg 54%
03:00 +15°C° 0 mm 2 m/S 743 mmHg 56%
04:00 +15°C° 0 mm 2 m/S 743 mmHg 57%
05:00 +15°C° 0 mm 2 m/S 742 mmHg 58%
06:00 +16°C° 0 mm 2 m/S 742 mmHg 59%
07:00 +17°C° 0 mm 3 m/S 742 mmHg 59%
08:00 +18°C° 0 mm 3 m/S 742 mmHg 59%
09:00 +20°C° 0 mm 3 m/S 742 mmHg 56%
10:00 +22°C° 0 mm 4 m/S 742 mmHg 52%
11:00 +26°C° 0 mm 4 m/S 742 mmHg 48%
12:00 +26°C° 0 mm 5 m/S 742 mmHg 45%
13:00 +27°C° 0 mm 5 m/S 741 mmHg 42%
14:00 +28°C° 0 mm 5 m/S 741 mmHg 39%
15:00 +27°C° 0 mm 4 m/S 741 mmHg 42%
16:00 +26°C° 0 mm 4 m/S 740 mmHg 44%
17:00 +25°C° 0 mm 3 m/S 740 mmHg 47%
18:00 +22°C° 0 mm 3 m/S 740 mmHg 47%
19:00 +21°C° 0 mm 4 m/S 740 mmHg 47%
20:00 +20°C° 0 mm 4 m/S 739 mmHg 47%
21:00 +19°C° 0 mm 4 m/S 739 mmHg 49%
22:00 +19°C° 0 mm 4 m/S 739 mmHg 51%
23:00 +19°C° 0 mm 4 m/S 739 mmHg 52%

Morgen, 26 September, Samstag

Zeit Temperatur Niederschläge Wind Luftdruck Luftfeuchtigkeit
00:00 +18°C° 0.3 mm 4 m/S 739 mmHg 60%
01:00 +18°C° 0.3 mm 4 m/S 739 mmHg 68%
02:00 +17°C° 0.3 mm 3 m/S 739 mmHg 76%
03:00 +17°C° 0 mm 4 m/S 739 mmHg 75%
04:00 +15°C° 0 mm 4 m/S 738 mmHg 74%
05:00 +15°C° 0 mm 4 m/S 738 mmHg 73%
06:00 +16°C° 0 mm 5 m/S 738 mmHg 71%
07:00 +17°C° 0 mm 5 m/S 738 mmHg 68%
08:00 +19°C° 0 mm 5 m/S 738 mmHg 66%
09:00 +20°C° 0 mm 6 m/S 738 mmHg 61%
10:00 +22°C° 0 mm 6 m/S 738 mmHg 56%
11:00 +24°C° 0 mm 7 m/S 738 mmHg 51%
12:00 +26°C° 0 mm 7 m/S 738 mmHg 48%
13:00 +27°C° 0 mm 7 m/S 737 mmHg 45%
14:00 +28°C° 0 mm 7 m/S 737 mmHg 42%
15:00 +27°C° 0 mm 6 m/S 737 mmHg 44%
16:00 +26°C° 0 mm 5 m/S 736 mmHg 46%
17:00 +26°C° 0 mm 4 m/S 736 mmHg 47%
18:00 +25°C° 0 mm 5 m/S 736 mmHg 50%
19:00 +23°C° 0 mm 5 m/S 736 mmHg 52%
20:00 +22°C° 0 mm 5 m/S 736 mmHg 54%
21:00 +22°C° 0 mm 6 m/S 736 mmHg 54%
22:00 +22°C° 0 mm 6 m/S 736 mmHg 54%
23:00 +21°C° 0 mm 6 m/S 736 mmHg 55%

übermorgen, 27 September, Sonntag

Zeit Temperatur Niederschläge Wind Luftdruck Luftfeuchtigkeit
00:00 +21°C° 0 mm 6 m/S 736 mmHg 58%
01:00 +20°C° 0 mm 6 m/S 736 mmHg 61%
02:00 +20°C° 0 mm 6 m/S 736 mmHg 64%
03:00 +19°C° 1 mm 6 m/S 735 mmHg 70%
04:00 +19°C° 1 mm 6 m/S 735 mmHg 75%
05:00 +17°C° 1 mm 7 m/S 735 mmHg 80%
06:00 +17°C° 1.3 mm 8 m/S 735 mmHg 82%
07:00 +17°C° 1.3 mm 8 m/S 735 mmHg 83%
08:00 +17°C° 1.3 mm 9 m/S 735 mmHg 84%
09:00 +17°C° 2.3 mm 9 m/S 735 mmHg 84%
10:00 +17°C° 2.3 mm 8 m/S 736 mmHg 84%
11:00 +17°C° 2.3 mm 8 m/S 736 mmHg 85%
12:00 +18°C° 0.4 mm 7 m/S 737 mmHg 79%
13:00 +20°C° 0.4 mm 7 m/S 738 mmHg 73%
14:00 +21°C° 0.4 mm 7 m/S 738 mmHg 67%
15:00 +20°C° 0 mm 5 m/S 739 mmHg 68%
16:00 +19°C° 0 mm 4 m/S 740 mmHg 69%
17:00 +17°C° 0 mm 3 m/S 740 mmHg 70%
18:00 +16°C° 0 mm 2 m/S 741 mmHg 73%
19:00 +15°C° 0 mm 2 m/S 742 mmHg 76%
20:00 +14°C° 0 mm 2 m/S 742 mmHg 79%
21:00 +13°C° 0 mm 2 m/S 743 mmHg 80%
22:00 +13°C° 0 mm 1 m/S 743 mmHg 80%
23:00 +13°C° 0 mm 1 m/S 743 mmHg 80%

28 September, Montag

Zeit Temperatur Niederschläge Wind Luftdruck Luftfeuchtigkeit
00:00 +13°C° 0 mm 2 m/S 743 mmHg 81%
01:00 +13°C° 0 mm 2 m/S 744 mmHg 81%
02:00 +13°C° 0 mm 2 m/S 744 mmHg 81%
03:00 +12°C° 0 mm 2 m/S 744 mmHg 84%
04:00 +12°C° 0 mm 2 m/S 744 mmHg 86%
05:00 +10°C° 0 mm 2 m/S 744 mmHg 89%
06:00 +12°C° 0.1 mm 2 m/S 744 mmHg 86%
07:00 +12°C° 0.1 mm 3 m/S 744 mmHg 83%
08:00 +13°C° 0.1 mm 3 m/S 745 mmHg 81%
09:00 +16°C° 0.1 mm 3 m/S 745 mmHg 75%
10:00 +18°C° 0.1 mm 4 m/S 745 mmHg 69%
11:00 +19°C° 0.1 mm 4 m/S 745 mmHg 63%
12:00 +21°C° 0 mm 4 m/S 745 mmHg 55%
13:00 +22°C° 0 mm 4 m/S 745 mmHg 47%
14:00 +23°C° 0 mm 4 m/S 745 mmHg 40%
15:00 +22°C° 0 mm 3 m/S 744 mmHg 45%
16:00 +21°C° 0 mm 3 m/S 744 mmHg 51%
17:00 +20°C° 0 mm 2 m/S 744 mmHg 56%
18:00 +19°C° 0 mm 2 m/S 744 mmHg 59%
19:00 +18°C° 0 mm 1 m/S 744 mmHg 62%
20:00 +16°C° 0 mm 1 m/S 744 mmHg 65%
21:00 +16°C° 0 mm 1 m/S 744 mmHg 66%
22:00 +16°C° 0 mm 1 m/S 744 mmHg 67%
23:00 +15°C° 0 mm 1 m/S 744 mmHg 68%

29 September, Dienstag

Zeit Temperatur Niederschläge Wind Luftdruck Luftfeuchtigkeit
00:00 +15°C° 0 mm 1 m/S 743 mmHg 70%
01:00 +15°C° 0 mm 1 m/S 743 mmHg 72%
02:00 +14°C° 0 mm 1 m/S 743 mmHg 74%
03:00 +14°C° 0 mm 1 m/S 743 mmHg 76%
04:00 +14°C° 0 mm 1 m/S 743 mmHg 77%
05:00 +14°C° 0 mm 1 m/S 742 mmHg 78%
06:00 +15°C° 0 mm 1 m/S 742 mmHg 76%
07:00 +16°C° 0 mm 1 m/S 742 mmHg 74%
08:00 +16°C° 0 mm 2 m/S 742 mmHg 73%
09:00 +18°C° 0 mm 2 m/S 742 mmHg 67%
10:00 +19°C° 0 mm 2 m/S 742 mmHg 61%
11:00 +21°C° 0 mm 2 m/S 742 mmHg 55%
12:00 +20°C° 0.1 mm 3 m/S 741 mmHg 60%
13:00 +19°C° 0.1 mm 3 m/S 741 mmHg 65%
14:00 +18°C° 0.1 mm 4 m/S 741 mmHg 70%
15:00 +17°C° 0.3 mm 4 m/S 740 mmHg 75%
16:00 +15°C° 0.3 mm 4 m/S 740 mmHg 80%
17:00 +14°C° 0.3 mm 4 m/S 740 mmHg 85%
18:00 +14°C° 1.2 mm 5 m/S 740 mmHg 87%
19:00 +14°C° 1.2 mm 5 m/S 740 mmHg 89%
20:00 +14°C° 1.2 mm 5 m/S 739 mmHg 91%
21:00 +13°C° 1.3 mm 5 m/S 739 mmHg 92%
22:00 +13°C° 1.3 mm 5 m/S 739 mmHg 92%
23:00 +13°C° 1.3 mm 5 m/S 738 mmHg 93%

30 September, Mittwoch

Zeit Temperatur Niederschläge Wind Luftdruck Luftfeuchtigkeit
00:00 +13°C° 3.5 mm 5 m/S 738 mmHg 93%
01:00 +13°C° 3.5 mm 6 m/S 738 mmHg 94%
02:00 +13°C° 3.5 mm 6 m/S 737 mmHg 95%
03:00 +13°C° 2.9 mm 6 m/S 737 mmHg 95%
04:00 +12°C° 2.9 mm 7 m/S 737 mmHg 95%
05:00 +11°C° 2.9 mm 7 m/S 737 mmHg 94%
06:00 +11°C° 4 mm 8 m/S 736 mmHg 94%
07:00 +11°C° 4 mm 8 m/S 736 mmHg 93%
08:00 +11°C° 4 mm 9 m/S 736 mmHg 93%
09:00 +11°C° 2 mm 8 m/S 736 mmHg 93%
10:00 +11°C° 2 mm 8 m/S 736 mmHg 93%
11:00 +11°C° 2 mm 8 m/S 735 mmHg 93%
12:00 +11°C° 2.4 mm 7 m/S 735 mmHg 94%
13:00 +11°C° 2.4 mm 6 m/S 735 mmHg 95%
14:00 +11°C° 2.4 mm 6 m/S 735 mmHg 96%
15:00 +12°C° 1.7 mm 5 m/S 735 mmHg 95%
16:00 +12°C° 1.7 mm 5 m/S 734 mmHg 95%
17:00 +12°C° 1.7 mm 5 m/S 734 mmHg 95%
18:00 +12°C° 0.6 mm 5 m/S 734 mmHg 95%
19:00 +12°C° 0.6 mm 5 m/S 734 mmHg 94%
20:00 +12°C° 0.6 mm 5 m/S 734 mmHg 94%
21:00 +12°C° 0.3 mm 5 m/S 735 mmHg 94%
22:00 +12°C° 0.3 mm 5 m/S 735 mmHg 95%
23:00 +12°C° 0.3 mm 5 m/S 735 mmHg 95%
Mehr zeigen